Aeroporto :
LOGIN :

Iscrizione | Disclaimer

   EN    FR    IT 

 










Sommario :    VFR   VFR Marginale   IFR   IFR Intensivo   IFR Molto Intensivo
Visibilità : 
Base nubi : 
>= 8 km
>= 3000ft
5 / 8 km
1000 / 3000 ft
1500m / 5 km
500 / 1000 ft
800 / 1500m
200 / 500 ft
< 800m
< 200 ft
Simboli :   Temporali  Nebbia  Neve Forte  Precipitazioni Forti  Vento > 20 kt
SIGMETs :   Varie  Temporali  Ghiacco  Turbolenza  Onda orograficha  Ceneri Vulcaniche






- Altitudine del aeroporto : 140 ft


ESTL - Ljungbyhed

ULTIMO METAR :
  • 200150Z AUTO 29020KT 9999 FEW021/// SCT032/// 01/M02 Q1001

METARs OBSOLETI :
  • 200120Z AUTO 31019G30KT 9999 -SN FEW020/// BKN053/// 01/M04 Q1000
  • 200050Z AUTO 32018KT 9999 SG FEW029/// 01/M02 Q1000 RESN RESHUP
  • 200020Z AUTO 30014KT 9999 FEW024/// 01/M01 Q1000
  • 192350Z AUTO 32019KT 9999 -SN FEW026/// BKN034/// BKN040/// 02/M02 Q1000 RESHUP REUP

Previsioni scadute.



MetMap, La meteo Aeronautica in un colpo d'occhio ! - Copyright ORBIFLY Dicembre 2007 - Disclaimer

ORBIFLY MET'MAP TEAM :

Programmazione e sviluppo : Alexandra Zaïnal
Concezione : Baudouin d'Aumeries
Aiuto per la programmazione : Marc-Olivier Méhu
Supporto tecnico e logistico : Manuel Goepfert
Aiuto per la traduzione : Arnaldo La Scala

Contatto : metmap@orbifly.com




FONTI E CREDITI :

   NOAA